Regional Weather Roundup
Issued by NWS Jackson, KY

Home | Current Version | Previous Version | Graphics & Text | Print | Product List | Glossary On
Versions: 1 2 3 4 5 6 7 8 9 10 11 12 13 14 15 16 17 18 19 20 21 22 23 24 25 26 27
000
ASUS43 KJKL 261210
RWRJKL

EAST KENTUCKY HOURLY WEATHER ROUNDUP
NATIONAL WEATHER SERVICE JACKSON KY
800 AM EDT FRI MAY 26 2017

NOTE: "FAIR" INDICATES FEW OR NO CLOUDS BELOW 12,000 FEET WITH
NO SIGNIFICANT WEATHER AND/OR OBSTRUCTIONS TO VISIBILITY.

* THESE REPORTS ARE NOT UNDER NWS QUALITY CONTROL AND MAY NOT
  REPORT WEATHER SUCH AS PRECIPITATION AND FOG.

KYZ079-080-083-085-087-088-110-112-115-119-120-261300
...EASTERN KENTUCKY...

CITY           SKY/WX    TMP DP  RH WIND       PRES   REMARKS
JACKSON        SUNNY     58  55  90 VRB3      29.97R
6HR MIN TEMP:  54; 6HR MAX TEMP:  58;

LONDON         SUNNY     55  52  89 CALM      29.98R
6HR MIN TEMP:  50; 6HR MAX TEMP:  58;

SOMERSET*      SUNNY     54  54 100 CALM      29.99R
MONTICELLO*    SUNNY     59  55  87 NW9       30.00R
6HR MIN TEMP:  46; 6HR MAX TEMP:  59;

WILLIAMSBURG*  SUNNY     57  54  88 SW3       29.99R
MIDDLESBORO*   SUNNY     55  54  97 CALM      30.01R
6HR MIN TEMP:  49; 6HR MAX TEMP:  58;

HARLAN APT*    CLOUDY    54  52  94 CALM      30.00R VSB 3/4
PIKE CO APT*     N/A     58  57  97 SW3       29.96R
BIG SANDY APT* SUNNY     59  56  90 SW6       29.96R
6HR MIN TEMP:  57; 6HR MAX TEMP:  59;

MOREHEAD APT*  SUNNY     59  55  88 SW6       29.95R
ASHLAND*       SUNNY     57  54  88 SE3       29.90R
$$

KYZ035-036-041-042-044-050-067-078-099-261300
...CENTRAL KENTUCKY...

CITY           SKY/WX    TMP DP  RH WIND       PRES   REMARKS
MT STERLING*   SUNNY     59  54  82 W6        29.97R
FLEMING/MASON* SUNNY     58  55  91 W9        29.94R
DANVILLE*      MOSUNNY   55  52  88 S5        29.97R
LEXINGTON      SUNNY     58  53  84 SW7       29.95R
6HR MIN TEMP:  54; 6HR MAX TEMP:  58;

FRANKFORT      SUNNY     58  53  84 SW5       29.92R
6HR MIN TEMP:  53; 6HR MAX TEMP:  58;

LOUISVILLE     MOSUNNY   60  55  83 S3        29.92R
6HR MIN TEMP:  56; 6HR MAX TEMP:  61;

LEBANON*         N/A     59  54  82 CALM      29.96R
GLASGOW*       SUNNY     58  54  86 CALM      29.96R
BOWLING GREEN  MOSUNNY   61  55  81 SW5       29.95R
6HR MIN TEMP:  57; 6HR MAX TEMP:  61;

$$

KYZ091>093-OHZ055-061-077-WVZ005-015-034-035-042-261300
...SOUTHERN OHIO/WEST VIRGINIA...

CITY           SKY/WX    TMP DP  RH WIND       PRES   REMARKS
COVINGTON      MOSUNNY   56  55  97 SW3       29.91R
COLUMBUS       PTSUNNY   58  54  86 W13       29.84R
DAYTON         CLOUDY    59  52  77 W10       29.88R
WILMINGTON     CLOUDY    58  56  93 W13       29.89R
HUNTINGTON     MOSUNNY   57  53  86 SW5       29.91R
CHARLESTON     MOSUNNY   59  53  80 SW10      29.91R
PINEVILLE*     CLOUDY    57  56  97 MISG      29.99R FOG
BECKLEY        CLOUDY    54  50  86 W9        29.94R
BLUEFIELD      CLOUDY    54  50  86 W10G25    29.95R
LOGAN CO APT*  CLOUDY    57  55  94 CALM      29.94R
$$

VAZ002-007-008-TNZ017-027-036-066-071-261300
...SOUTHWEST VIRGINIA/EAST TENNESSEE...

CITY           SKY/WX    TMP DP  RH WIND       PRES   REMARKS
WISE*          MOSUNNY   57  50  77 CALM      30.01R
JONESVILLE*      N/A     55  54  94 CALM      30.02R
ABINGDON*      CLOUDY    56  56 100 W6        30.00R
BRISTOL        MOSUNNY   57  54  89 SW6       30.00R
MORRISTOWN*    SUNNY     57  54  88 CALM      29.99S
SEVIERVILLE*   SUNNY     54  52  94 CALM      30.00S
KNOXVILLE      MOSUNNY   58  52  80 SW3       29.99S
LAFOLLETTE*    SUNNY     55  54  94 CALM      30.02R
OAK RIDGE      SUNNY     58  53  84 W3        30.01S
CROSSVILLE     SUNNY     55  51  86 CALM      30.02R
NASHVILLE      MOSUNNY   59  54  83 S6        29.96R
$$

...KEY TO REMARKS...
VSB - VISIBILITY IN MILES
WCI - WIND CHILL INDEX
HX  - HEAT INDEX

$$




USA.gov is the U.S. government's official web portal to all federal, state and local government web resources and services.